Time,TemperatureF,DewpointF,PressureIn,WindDirection,WindDirectionDegrees,WindSpeedMPH,WindSpeedGustMPH,Humidity,HourlyPrecipIn,Conditions,Clouds,dailyrainin,SoftwareType,DateUTC
2013-01-07 00:00:00,47.7,37.6,30.12,North,-999,0.0,0.0,68,0.00,,,-99.99,FreeWX-Wi 1.01,2013-01-07 08:00:00,
2013-01-07 00:05:00,47.7,37.9,30.12,North,-999,0.0,0.0,69,0.00,,,-99.99,FreeWX-Wi 1.01,2013-01-07 08:05:00,
2013-01-07 00:10:00,47.7,38.3,30.12,North,-999,0.0,0.0,70,0.00,,,-99.99,FreeWX-Wi 1.01,2013-01-07 08:10:00,
2013-01-07 00:15:00,47.7,38.3,30.12,North,-999,0.0,0.0,70,0.00,,,-99.99,FreeWX-Wi 1.01,2013-01-07 08:15:00,
2013-01-07 00:20:00,47.7,38.7,30.12,North,-999,0.0,0.0,71,0.00,,,-99.99,FreeWX-Wi 1.01,2013-01-07 08:20:00,
2013-01-07 00:25:00,47.7,38.7,30.12,North,-999,0.0,0.0,71,0.00,,,-99.99,FreeWX-Wi 1.01,2013-01-07 08:25:00,
2013-01-07 00:30:00,47.7,38.7,30.12,North,-999,0.0,0.0,71,0.00,,,-99.99,FreeWX-Wi 1.01,2013-01-07 08:30:00,
2013-01-07 00:35:00,47.7,39.0,30.12,North,-999,0.0,2.2,72,0.00,,,-99.99,FreeWX-Wi 1.01,2013-01-07 08:35:00,
2013-01-07 00:40:00,47.7,38.7,30.12,North,-999,0.0,3.1,71,0.00,,,-99.99,FreeWX-Wi 1.01,2013-01-07 08:40:00,
2013-01-07 00:45:00,47.7,38.7,30.12,North,-999,0.0,0.0,71,0.00,,,-99.99,FreeWX-Wi 1.01,2013-01-07 08:45:00,
2013-01-07 00:50:00,47.7,39.0,30.12,North,-999,0.0,2.7,72,0.00,,,-99.99,FreeWX-Wi 1.01,2013-01-07 08:50:00,
2013-01-07 00:55:00,47.7,39.0,30.12,North,-999,0.0,3.1,72,0.00,,,-99.99,FreeWX-Wi 1.01,2013-01-07 08:55:00,
2013-01-07 01:00:00,47.7,39.4,30.09,North,-999,0.0,3.1,73,0.00,,,-99.99,FreeWX-Wi 1.01,2013-01-07 09:00:00,
2013-01-07 01:05:00,47.7,39.4,30.09,WNW,297,1.0,3.1,73,0.00,,,-99.99,FreeWX-Wi 1.01,2013-01-07 09:05:00,
2013-01-07 01:10:00,47.7,39.7,30.09,WNW,291,1.0,4.0,74,0.00,,,-99.99,FreeWX-Wi 1.01,2013-01-07 09:10:00,
2013-01-07 01:15:00,47.5,39.9,30.09,WNW,284,1.0,3.6,75,0.00,,,-99.99,FreeWX-Wi 1.01,2013-01-07 09:15:00,
2013-01-07 01:20:00,47.5,39.9,30.09,West,276,1.0,3.1,75,0.00,,,-99.99,FreeWX-Wi 1.01,2013-01-07 09:20:00,
2013-01-07 01:25:00,47.5,39.9,30.09,West,269,1.0,2.7,75,0.00,,,-99.99,FreeWX-Wi 1.01,2013-01-07 09:25:00,
2013-01-07 01:30:00,47.5,40.3,30.09,West,266,1.0,4.0,76,0.00,,,-99.99,FreeWX-Wi 1.01,2013-01-07 09:30:00,
2013-01-07 01:36:00,47.5,39.9,30.09,West,264,1.0,2.7,75,0.00,,,-99.99,FreeWX-Wi 1.01,2013-01-07 09:36:00,
2013-01-07 01:41:00,47.7,40.1,30.09,North,-999,0.0,0.0,75,0.00,,,-99.99,FreeWX-Wi 1.01,2013-01-07 09:41:00,
2013-01-07 01:46:00,47.7,40.1,30.12,North,-999,0.0,2.2,75,0.00,,,-99.99,FreeWX-Wi 1.01,2013-01-07 09:46:00,
2013-01-07 01:51:00,47.7,39.7,30.12,North,-999,0.0,0.0,74,0.00,,,-99.99,FreeWX-Wi 1.01,2013-01-07 09:51:00,
2013-01-07 01:56:00,47.7,39.7,30.12,North,-999,0.0,0.0,74,0.00,,,-99.99,FreeWX-Wi 1.01,2013-01-07 09:56:00,
2013-01-07 02:01:00,47.7,39.4,30.12,North,-999,0.0,0.0,73,0.00,,,-99.99,FreeWX-Wi 1.01,2013-01-07 10:01:00,
2013-01-07 02:06:00,47.7,39.4,30.12,North,-999,0.0,0.0,73,0.00,,,-99.99,FreeWX-Wi 1.01,2013-01-07 10:06:00,
2013-01-07 02:11:00,47.7,39.4,30.12,North,-999,0.0,0.0,73,0.00,,,-99.99,FreeWX-Wi 1.01,2013-01-07 10:11:00,
2013-01-07 02:16:00,47.7,39.0,30.09,North,-999,0.0,2.2,72,0.00,,,-99.99,FreeWX-Wi 1.01,2013-01-07 10:16:00,
2013-01-07 02:21:00,47.7,39.0,30.09,North,-999,0.0,0.0,72,0.00,,,-99.99,FreeWX-Wi 1.01,2013-01-07 10:21:00,
2013-01-07 02:26:00,47.7,39.0,30.09,North,-999,0.0,2.2,72,0.00,,,-99.99,FreeWX-Wi 1.01,2013-01-07 10:26:00,
2013-01-07 02:31:00,47.7,39.0,30.12,North,-999,0.0,0.0,72,0.00,,,-99.99,FreeWX-Wi 1.01,2013-01-07 10:31:00,
2013-01-07 02:36:00,47.5,39.2,30.12,North,-999,0.0,3.1,73,0.00,,,-99.99,FreeWX-Wi 1.01,2013-01-07 10:36:00,
2013-01-07 02:41:00,47.5,39.2,30.12,North,-999,0.0,2.7,73,0.00,,,-99.99,FreeWX-Wi 1.01,2013-01-07 10:41:00,
2013-01-07 02:46:00,47.5,39.2,30.09,North,-999,0.0,3.1,73,0.00,,,-99.99,FreeWX-Wi 1.01,2013-01-07 10:46:00,
2013-01-07 02:51:00,47.5,38.8,30.09,North,-999,0.0,3.1,72,0.00,,,-99.99,FreeWX-Wi 1.01,2013-01-07 10:51:00,
2013-01-07 02:56:00,47.5,38.5,30.09,North,-999,0.0,2.7,71,0.00,,,-99.99,FreeWX-Wi 1.01,2013-01-07 10:56:00,
2013-01-07 03:01:00,47.5,38.1,30.09,North,-999,0.0,2.2,70,0.00,,,-99.99,FreeWX-Wi 1.01,2013-01-07 11:01:00,
2013-01-07 03:06:00,47.5,37.8,30.09,North,-999,0.0,0.0,69,0.00,,,-99.99,FreeWX-Wi 1.01,2013-01-07 11:06:00,
2013-01-07 03:11:00,47.5,37.4,30.09,North,-999,0.0,2.7,68,0.00,,,-99.99,FreeWX-Wi 1.01,2013-01-07 11:11:00,
2013-01-07 03:16:00,47.5,37.4,30.09,North,-999,0.0,3.6,68,0.00,,,-99.99,FreeWX-Wi 1.01,2013-01-07 11:16:00,
2013-01-07 03:21:00,47.5,37.4,30.09,North,-999,0.0,0.0,68,0.00,,,-99.99,FreeWX-Wi 1.01,2013-01-07 11:21:00,
2013-01-07 03:26:00,47.5,37.8,30.09,North,-999,0.0,3.1,69,0.00,,,-99.99,FreeWX-Wi 1.01,2013-01-07 11:26:00,
2013-01-07 03:31:00,47.5,37.8,30.09,North,-999,0.0,2.7,69,0.00,,,-99.99,FreeWX-Wi 1.01,2013-01-07 11:31:00,
2013-01-07 03:36:00,47.5,37.8,30.09,North,-999,0.0,3.6,69,0.00,,,-99.99,FreeWX-Wi 1.01,2013-01-07 11:36:00,
2013-01-07 03:41:00,47.5,38.1,30.09,North,-999,0.0,2.7,70,0.00,,,-99.99,FreeWX-Wi 1.01,2013-01-07 11:41:00,
2013-01-07 03:46:00,47.7,38.7,30.09,North,-999,0.0,2.2,71,0.00,,,-99.99,FreeWX-Wi 1.01,2013-01-07 11:46:00,
2013-01-07 03:51:00,47.7,38.7,30.09,North,-999,0.0,3.6,71,0.00,,,-99.99,FreeWX-Wi 1.01,2013-01-07 11:51:00,
2013-01-07 03:56:00,47.7,39.0,30.09,North,-999,0.0,3.1,72,0.00,,,-99.99,FreeWX-Wi 1.01,2013-01-07 11:56:00,
2013-01-07 04:01:00,47.7,39.4,30.09,North,-999,0.0,2.7,73,0.00,,,-99.99,FreeWX-Wi 1.01,2013-01-07 12:01:00,
2013-01-07 04:06:00,47.7,39.4,30.09,North,-999,0.0,3.1,73,0.00,,,-99.99,FreeWX-Wi 1.01,2013-01-07 12:06:00,
2013-01-07 04:11:00,47.7,39.4,30.09,North,-999,0.0,2.2,73,0.00,,,-99.99,FreeWX-Wi 1.01,2013-01-07 12:11:00,
2013-01-07 04:16:00,47.7,39.4,30.09,North,-999,0.0,3.1,73,0.00,,,-99.99,FreeWX-Wi 1.01,2013-01-07 12:16:00,
2013-01-07 04:21:00,47.8,39.6,30.09,North,-999,0.0,3.1,73,0.00,,,-99.99,FreeWX-Wi 1.01,2013-01-07 12:21:00,
2013-01-07 04:26:00,47.8,39.6,30.09,North,-999,0.0,2.7,73,0.00,,,-99.99,FreeWX-Wi 1.01,2013-01-07 12:26:00,
2013-01-07 04:31:00,47.8,39.9,30.09,North,-999,0.0,0.0,74,0.00,,,-99.99,FreeWX-Wi 1.01,2013-01-07 12:31:00,
2013-01-07 04:36:00,47.8,39.9,30.09,North,-999,0.0,3.1,74,0.00,,,-99.99,FreeWX-Wi 1.01,2013-01-07 12:36:00,
2013-01-07 04:41:00,47.8,39.9,30.09,North,-999,0.0,2.7,74,0.00,,,-99.99,FreeWX-Wi 1.01,2013-01-07 12:41:00,
2013-01-07 04:46:00,48.0,40.1,30.09,North,-999,0.0,3.1,74,0.00,,,-99.99,FreeWX-Wi 1.01,2013-01-07 12:46:00,
2013-01-07 04:51:00,48.0,40.5,30.09,North,-999,0.0,3.1,75,0.00,,,-99.99,FreeWX-Wi 1.01,2013-01-07 12:51:00,
2013-01-07 04:56:00,48.0,40.5,30.09,North,-999,0.0,3.1,75,0.00,,,-99.99,FreeWX-Wi 1.01,2013-01-07 12:56:00,
2013-01-07 05:01:00,48.0,40.5,30.09,North,-999,0.0,3.1,75,0.00,,,-99.99,FreeWX-Wi 1.01,2013-01-07 13:01:00,
2013-01-07 05:06:00,48.0,40.8,30.09,North,-999,0.0,0.0,76,0.00,,,-99.99,FreeWX-Wi 1.01,2013-01-07 13:06:00,
2013-01-07 05:11:00,48.0,40.8,30.09,North,-999,0.0,0.0,76,0.00,,,-99.99,FreeWX-Wi 1.01,2013-01-07 13:11:00,
2013-01-07 05:16:00,48.0,40.8,30.09,North,-999,0.0,0.0,76,0.00,,,-99.99,FreeWX-Wi 1.01,2013-01-07 13:16:00,
2013-01-07 05:21:00,48.2,41.0,30.09,North,-999,0.0,2.2,76,0.00,,,-99.99,FreeWX-Wi 1.01,2013-01-07 13:21:00,
2013-01-07 05:26:00,48.2,41.0,30.09,North,-999,0.0,3.1,76,0.00,,,-99.99,FreeWX-Wi 1.01,2013-01-07 13:26:00,
2013-01-07 05:31:00,48.2,41.0,30.06,North,-999,0.0,3.6,76,0.00,,,-99.99,FreeWX-Wi 1.01,2013-01-07 13:31:00,
2013-01-07 05:36:00,48.2,41.0,30.06,North,-999,0.0,3.6,76,0.00,,,-99.99,FreeWX-Wi 1.01,2013-01-07 13:36:00,
2013-01-07 05:41:00,48.2,41.0,30.06,West,259,1.0,3.6,76,0.00,,,-99.99,FreeWX-Wi 1.01,2013-01-07 13:41:00,
2013-01-07 05:46:00,48.4,41.2,30.06,West,260,2.0,4.0,76,0.00,,,-99.99,FreeWX-Wi 1.01,2013-01-07 13:46:00,
2013-01-07 05:51:00,48.4,41.2,30.06,West,260,2.0,3.6,76,0.00,,,-99.99,FreeWX-Wi 1.01,2013-01-07 13:51:00,
2013-01-07 05:56:00,48.4,41.2,30.06,West,260,2.0,3.1,76,0.00,,,-99.99,FreeWX-Wi 1.01,2013-01-07 13:56:00,
2013-01-07 06:01:00,48.4,41.2,30.09,West,260,2.0,2.7,76,0.00,,,-99.99,FreeWX-Wi 1.01,2013-01-07 14:01:00,
2013-01-07 06:06:00,48.4,41.2,30.09,West,260,1.0,0.0,76,0.00,,,-99.99,FreeWX-Wi 1.01,2013-01-07 14:06:00,
2013-01-07 06:11:00,48.4,40.8,30.09,West,260,1.0,0.0,75,0.00,,,-99.99,FreeWX-Wi 1.01,2013-01-07 14:11:00,
2013-01-07 06:16:00,48.2,40.6,30.09,North,-999,0.0,0.0,75,0.00,,,-99.99,FreeWX-Wi 1.01,2013-01-07 14:16:00,
2013-01-07 06:21:00,48.4,40.8,30.09,North,-999,0.0,0.0,75,0.00,,,-99.99,FreeWX-Wi 1.01,2013-01-07 14:21:00,
2013-01-07 06:26:00,48.4,41.2,30.09,North,-999,0.0,0.0,76,0.00,,,-99.99,FreeWX-Wi 1.01,2013-01-07 14:26:00,
2013-01-07 06:31:00,48.4,41.2,30.09,North,-999,0.0,0.0,76,0.00,,,-99.99,FreeWX-Wi 1.01,2013-01-07 14:31:00,
2013-01-07 06:36:00,48.4,41.5,30.09,North,-999,0.0,0.0,77,0.00,,,-99.99,FreeWX-Wi 1.01,2013-01-07 14:36:00,
2013-01-07 06:41:00,48.4,41.5,30.09,North,-999,0.0,0.0,77,0.00,,,-99.99,FreeWX-Wi 1.01,2013-01-07 14:41:00,
2013-01-07 06:46:00,48.6,42.1,30.09,North,-999,0.0,0.0,78,0.00,,,-99.99,FreeWX-Wi 1.01,2013-01-07 14:46:00,
2013-01-07 06:51:00,48.6,42.1,30.09,North,-999,0.0,0.0,78,0.00,,,-99.99,FreeWX-Wi 1.01,2013-01-07 14:51:00,
2013-01-07 06:56:00,48.6,42.3,30.09,North,-999,0.0,0.0,79,0.00,,,-99.99,FreeWX-Wi 1.01,2013-01-07 14:56:00,
2013-01-07 07:01:00,48.7,42.4,30.09,North,-999,0.0,2.7,79,0.00,,,-99.99,FreeWX-Wi 1.01,2013-01-07 15:01:00,
2013-01-07 07:06:00,48.7,42.8,30.09,North,-999,0.0,0.0,80,0.00,,,-99.99,FreeWX-Wi 1.01,2013-01-07 15:06:00,
2013-01-07 07:11:00,48.7,42.8,30.09,North,-999,0.0,0.0,80,0.00,,,-99.99,FreeWX-Wi 1.01,2013-01-07 15:11:00,
2013-01-07 07:16:00,48.7,42.8,30.09,North,-999,0.0,0.0,80,0.00,,,-99.99,FreeWX-Wi 1.01,2013-01-07 15:16:00,
2013-01-07 07:21:00,48.7,42.8,30.09,North,-999,0.0,0.0,80,0.00,,,-99.99,FreeWX-Wi 1.01,2013-01-07 15:21:00,
2013-01-07 07:26:00,48.7,42.8,30.09,North,-999,0.0,0.0,80,0.00,,,-99.99,FreeWX-Wi 1.01,2013-01-07 15:26:00,
2013-01-07 07:31:00,48.7,43.2,30.09,North,-999,0.0,0.0,81,0.00,,,-99.99,FreeWX-Wi 1.01,2013-01-07 15:31:00,
2013-01-07 07:36:00,48.7,43.2,30.09,North,-999,0.0,0.0,81,0.00,,,-99.99,FreeWX-Wi 1.01,2013-01-07 15:36:00,
2013-01-07 07:41:00,48.7,43.2,30.09,North,-999,0.0,0.0,81,0.00,,,-99.99,FreeWX-Wi 1.01,2013-01-07 15:41:00,
2013-01-07 07:46:00,48.7,43.2,30.09,North,-999,0.0,0.0,81,0.00,,,-99.99,FreeWX-Wi 1.01,2013-01-07 15:46:00,
2013-01-07 07:51:00,48.9,43.3,30.09,North,-999,0.0,0.0,81,0.00,,,-99.99,FreeWX-Wi 1.01,2013-01-07 15:51:00,
2013-01-07 07:56:00,48.9,43.3,30.09,North,-999,0.0,0.0,81,0.04,,,-99.99,FreeWX-Wi 1.01,2013-01-07 15:56:00,
2013-01-07 08:01:00,48.9,43.7,30.09,North,-999,0.0,0.0,82,0.04,,,-99.99,FreeWX-Wi 1.01,2013-01-07 16:01:00,
2013-01-07 08:06:00,48.9,43.7,30.09,North,-999,0.0,0.0,82,0.04,,,-99.99,FreeWX-Wi 1.01,2013-01-07 16:06:00,
2013-01-07 08:11:00,48.9,43.7,30.09,North,-999,0.0,0.0,82,0.04,,,-99.99,FreeWX-Wi 1.01,2013-01-07 16:11:00,
2013-01-07 08:16:00,48.9,43.7,30.09,North,-999,0.0,0.0,82,0.04,,,-99.99,FreeWX-Wi 1.01,2013-01-07 16:16:00,
2013-01-07 08:21:00,49.1,43.9,30.09,North,-999,0.0,0.0,82,0.04,,,-99.99,FreeWX-Wi 1.01,2013-01-07 16:21:00,
2013-01-07 08:26:00,49.1,43.9,30.09,North,-999,0.0,0.0,82,0.04,,,-99.99,FreeWX-Wi 1.01,2013-01-07 16:26:00,
2013-01-07 08:31:00,49.1,43.9,30.12,North,-999,0.0,0.0,82,0.04,,,-99.99,FreeWX-Wi 1.01,2013-01-07 16:31:00,
2013-01-07 08:36:00,49.1,43.9,30.12,North,-999,0.0,0.0,82,0.04,,,-99.99,FreeWX-Wi 1.01,2013-01-07 16:36:00,
2013-01-07 08:41:00,49.1,43.9,30.12,North,-999,0.0,0.0,82,0.04,,,-99.99,FreeWX-Wi 1.01,2013-01-07 16:41:00,
2013-01-07 08:46:00,49.3,44.1,30.12,North,-999,0.0,0.0,82,0.04,,,-99.99,FreeWX-Wi 1.01,2013-01-07 16:46:00,
2013-01-07 08:51:00,49.3,44.1,30.12,North,-999,0.0,0.0,82,0.04,,,-99.99,FreeWX-Wi 1.01,2013-01-07 16:51:00,
2013-01-07 08:56:00,49.5,44.2,30.12,North,-999,0.0,0.0,82,0.00,,,-99.99,FreeWX-Wi 1.01,2013-01-07 16:56:00,
2013-01-07 09:01:00,49.5,44.2,30.12,North,-999,0.0,0.0,82,0.00,,,-99.99,FreeWX-Wi 1.01,2013-01-07 17:01:00,
2013-01-07 09:06:00,49.6,44.8,30.12,North,-999,0.0,0.0,83,0.00,,,-99.99,FreeWX-Wi 1.01,2013-01-07 17:06:00,
2013-01-07 09:11:00,49.6,44.8,30.12,North,-999,0.0,0.0,83,0.00,,,-99.99,FreeWX-Wi 1.01,2013-01-07 17:11:00,
2013-01-07 09:17:00,49.6,44.8,30.15,North,-999,0.0,0.0,83,0.00,,,-99.99,FreeWX-Wi 1.01,2013-01-07 17:17:00,
2013-01-07 09:22:00,49.6,44.8,30.15,North,-999,0.0,0.0,83,0.00,,,-99.99,FreeWX-Wi 1.01,2013-01-07 17:22:00,
2013-01-07 09:27:00,49.8,44.8,30.15,North,-999,0.0,0.0,83,0.00,,,-99.99,FreeWX-Wi 1.01,2013-01-07 17:27:00,
2013-01-07 09:32:00,49.8,44.8,30.15,North,-999,0.0,0.0,83,0.00,,,-99.99,FreeWX-Wi 1.01,2013-01-07 17:32:00,
2013-01-07 09:37:00,49.8,44.8,30.15,North,-999,0.0,0.0,83,0.00,,,-99.99,FreeWX-Wi 1.01,2013-01-07 17:37:00,
2013-01-07 09:42:00,50.0,44.8,30.15,North,-999,0.0,2.7,82,0.00,,,-99.99,FreeWX-Wi 1.01,2013-01-07 17:42:00,
2013-01-07 09:47:00,50.0,44.8,30.15,North,-999,0.0,0.0,82,0.00,,,-99.99,FreeWX-Wi 1.01,2013-01-07 17:47:00,
2013-01-07 09:52:00,50.2,45.0,30.15,North,-999,0.0,0.0,82,0.00,,,-99.99,FreeWX-Wi 1.01,2013-01-07 17:52:00,
2013-01-07 09:57:00,50.2,45.0,30.15,North,-999,0.0,0.0,82,0.00,,,-99.99,FreeWX-Wi 1.01,2013-01-07 17:57:00,
2013-01-07 10:02:00,50.2,45.0,30.15,North,-999,0.0,0.0,82,0.00,,,-99.99,FreeWX-Wi 1.01,2013-01-07 18:02:00,
2013-01-07 10:07:00,50.2,45.0,30.15,North,-999,0.0,0.0,82,0.00,,,-99.99,FreeWX-Wi 1.01,2013-01-07 18:07:00,
2013-01-07 10:12:00,50.4,45.3,30.15,North,-999,0.0,0.0,83,0.00,,,-99.99,FreeWX-Wi 1.01,2013-01-07 18:12:00,
2013-01-07 10:17:00,50.4,45.3,30.18,North,-999,0.0,0.0,83,0.00,,,-99.99,FreeWX-Wi 1.01,2013-01-07 18:17:00,
2013-01-07 10:22:00,50.5,45.5,30.18,North,-999,0.0,0.0,83,0.00,,,-99.99,FreeWX-Wi 1.01,2013-01-07 18:22:00,
2013-01-07 10:27:00,50.5,45.5,30.18,North,-999,0.0,0.0,83,0.00,,,-99.99,FreeWX-Wi 1.01,2013-01-07 18:27:00,
2013-01-07 10:32:00,50.7,45.7,30.18,North,-999,0.0,0.0,83,0.00,,,-99.99,FreeWX-Wi 1.01,2013-01-07 18:32:00,
2013-01-07 10:37:00,50.7,45.7,30.18,North,-999,0.0,0.0,83,0.04,,,-99.99,FreeWX-Wi 1.01,2013-01-07 18:37:00,
2013-01-07 10:42:00,50.7,45.7,30.18,North,-999,0.0,3.6,83,0.04,,,-99.99,FreeWX-Wi 1.01,2013-01-07 18:42:00,
2013-01-07 10:47:00,50.9,45.9,30.18,North,-999,0.0,2.2,83,0.04,,,-99.99,FreeWX-Wi 1.01,2013-01-07 18:47:00,
2013-01-07 10:52:00,50.9,45.9,30.18,North,-999,0.0,0.0,83,0.04,,,-99.99,FreeWX-Wi 1.01,2013-01-07 18:52:00,
2013-01-07 10:57:00,51.1,46.0,30.18,North,-999,0.0,0.0,83,0.04,,,-99.99,FreeWX-Wi 1.01,2013-01-07 18:57:00,
2013-01-07 11:02:00,51.3,46.2,30.18,North,-999,0.0,2.2,83,0.04,,,-99.99,FreeWX-Wi 1.01,2013-01-07 19:02:00,
2013-01-07 11:07:00,51.3,46.2,30.18,North,-999,0.0,0.0,83,0.04,,,-99.99,FreeWX-Wi 1.01,2013-01-07 19:07:00,
2013-01-07 11:12:00,51.4,46.4,30.18,North,-999,0.0,0.0,83,0.04,,,-99.99,FreeWX-Wi 1.01,2013-01-07 19:12:00,
2013-01-07 11:17:00,51.4,46.0,30.18,North,-999,0.0,0.0,82,0.04,,,-99.99,FreeWX-Wi 1.01,2013-01-07 19:17:00,
2013-01-07 11:22:00,51.6,46.6,30.18,North,-999,0.0,0.0,83,0.08,,,-99.99,FreeWX-Wi 1.01,2013-01-07 19:22:00,
2013-01-07 11:27:00,51.6,46.2,30.18,North,-999,0.0,0.0,82,0.08,,,-99.99,FreeWX-Wi 1.01,2013-01-07 19:27:00,
2013-01-07 11:32:00,51.8,46.4,30.18,North,-999,0.0,0.0,82,0.08,,,-99.99,FreeWX-Wi 1.01,2013-01-07 19:32:00,
2013-01-07 11:37:00,51.8,46.4,30.18,North,-999,0.0,0.0,82,0.04,,,-99.99,FreeWX-Wi 1.01,2013-01-07 19:37:00,
2013-01-07 11:42:00,52.0,46.6,30.18,North,-999,0.0,0.0,82,0.04,,,-99.99,FreeWX-Wi 1.01,2013-01-07 19:42:00,
2013-01-07 11:47:00,52.0,46.6,30.18,North,-999,0.0,0.0,82,0.04,,,-99.99,FreeWX-Wi 1.01,2013-01-07 19:47:00,
2013-01-07 11:52:00,52.0,46.6,30.18,North,-999,0.0,0.0,82,0.04,,,-99.99,FreeWX-Wi 1.01,2013-01-07 19:52:00,
2013-01-07 11:57:00,52.2,46.8,30.18,North,-999,0.0,0.0,82,0.04,,,-99.99,FreeWX-Wi 1.01,2013-01-07 19:57:00,
2013-01-07 12:02:00,52.2,46.8,30.18,North,-999,0.0,0.0,82,0.04,,,-99.99,FreeWX-Wi 1.01,2013-01-07 20:02:00,
2013-01-07 12:07:00,52.3,46.9,30.18,North,-999,0.0,0.0,82,0.04,,,-99.99,FreeWX-Wi 1.01,2013-01-07 20:07:00,
2013-01-07 12:12:00,52.3,46.9,30.18,North,-999,0.0,0.0,82,0.04,,,-99.99,FreeWX-Wi 1.01,2013-01-07 20:12:00,
2013-01-07 12:17:00,52.5,47.1,30.18,North,-999,0.0,0.0,82,0.00,,,-99.99,FreeWX-Wi 1.01,2013-01-07 20:17:00,
2013-01-07 12:22:00,52.7,47.3,30.18,North,-999,0.0,0.0,82,0.04,,,-99.99,FreeWX-Wi 1.01,2013-01-07 20:22:00,
2013-01-07 12:27:00,53.1,47.7,30.18,North,-999,0.0,0.0,82,0.04,,,-99.99,FreeWX-Wi 1.01,2013-01-07 20:27:00,
2013-01-07 12:32:00,53.1,47.7,30.18,North,-999,0.0,0.0,82,0.04,,,-99.99,FreeWX-Wi 1.01,2013-01-07 20:32:00,
2013-01-07 12:37:00,53.2,47.8,30.18,North,-999,0.0,0.0,82,0.04,,,-99.99,FreeWX-Wi 1.01,2013-01-07 20:37:00,
2013-01-07 12:42:00,53.4,48.0,30.18,North,-999,0.0,0.0,82,0.04,,,-99.99,FreeWX-Wi 1.01,2013-01-07 20:42:00,
2013-01-07 12:47:00,53.6,48.2,30.18,North,-999,0.0,0.0,82,0.04,,,-99.99,FreeWX-Wi 1.01,2013-01-07 20:47:00,
2013-01-07 12:52:00,53.8,48.4,30.18,North,-999,0.0,0.0,82,0.04,,,-99.99,FreeWX-Wi 1.01,2013-01-07 20:52:00,
2013-01-07 12:57:00,54.0,48.6,30.18,North,-999,0.0,0.0,82,0.04,,,-99.99,FreeWX-Wi 1.01,2013-01-07 20:57:00,
2013-01-07 13:02:00,54.0,48.6,30.15,North,-999,0.0,0.0,82,0.04,,,-99.99,FreeWX-Wi 1.01,2013-01-07 21:02:00,
2013-01-07 13:07:00,54.1,48.7,30.15,North,-999,0.0,0.0,82,0.04,,,-99.99,FreeWX-Wi 1.01,2013-01-07 21:07:00,
2013-01-07 13:12:00,54.5,49.1,30.15,North,-999,0.0,2.7,82,0.04,,,-99.99,FreeWX-Wi 1.01,2013-01-07 21:12:00,
2013-01-07 13:17:00,54.7,49.3,30.18,North,-999,0.0,2.2,82,0.00,,,-99.99,FreeWX-Wi 1.01,2013-01-07 21:17:00,
2013-01-07 13:22:00,54.7,49.3,30.18,North,-999,0.0,0.0,82,0.00,,,-99.99,FreeWX-Wi 1.01,2013-01-07 21:22:00,
2013-01-07 13:27:00,54.9,49.5,30.18,North,-999,0.0,0.0,82,0.00,,,-99.99,FreeWX-Wi 1.01,2013-01-07 21:27:00,
2013-01-07 13:32:00,54.9,49.5,30.18,North,-999,0.0,2.2,82,0.00,,,-99.99,FreeWX-Wi 1.01,2013-01-07 21:32:00,
2013-01-07 13:38:00,55.0,49.6,30.18,North,-999,0.0,0.0,82,0.00,,,-99.99,FreeWX-Wi 1.01,2013-01-07 21:38:00,
2013-01-07 13:43:00,55.2,50.2,30.18,North,-999,0.0,3.1,83,0.00,,,-99.99,FreeWX-Wi 1.01,2013-01-07 21:43:00,
2013-01-07 13:48:00,55.4,50.0,30.18,North,-999,0.0,4.0,82,0.00,,,-99.99,FreeWX-Wi 1.01,2013-01-07 21:48:00,
2013-01-07 13:53:00,55.4,50.0,30.18,North,-999,0.0,3.1,82,0.00,,,-99.99,FreeWX-Wi 1.01,2013-01-07 21:53:00,
2013-01-07 13:58:00,55.8,50.4,30.18,North,-999,0.0,2.7,82,0.00,,,-99.99,FreeWX-Wi 1.01,2013-01-07 21:58:00,
2013-01-07 14:03:00,55.9,50.5,30.18,North,-999,0.0,0.0,82,0.00,,,-99.99,FreeWX-Wi 1.01,2013-01-07 22:03:00,
2013-01-07 14:08:00,56.1,50.7,30.18,North,-999,0.0,0.0,82,0.00,,,-99.99,FreeWX-Wi 1.01,2013-01-07 22:08:00,
2013-01-07 14:13:00,56.1,50.7,30.18,North,-999,0.0,0.0,82,0.00,,,-99.99,FreeWX-Wi 1.01,2013-01-07 22:13:00,
2013-01-07 14:18:00,56.1,50.7,30.18,North,-999,0.0,0.0,82,0.00,,,-99.99,FreeWX-Wi 1.01,2013-01-07 22:18:00,
2013-01-07 14:23:00,55.9,50.5,30.18,North,-999,0.0,0.0,82,0.00,,,-99.99,FreeWX-Wi 1.01,2013-01-07 22:23:00,
2013-01-07 14:28:00,55.9,50.5,30.18,North,-999,0.0,0.0,82,0.00,,,-99.99,FreeWX-Wi 1.01,2013-01-07 22:28:00,
2013-01-07 14:33:00,55.8,50.4,30.15,North,-999,0.0,0.0,82,0.00,,,-99.99,FreeWX-Wi 1.01,2013-01-07 22:33:00,
2013-01-07 14:38:00,55.8,50.4,30.15,North,-999,0.0,0.0,82,0.00,,,-99.99,FreeWX-Wi 1.01,2013-01-07 22:38:00,
2013-01-07 14:43:00,55.6,50.2,30.15,North,-999,0.0,0.0,82,0.00,,,-99.99,FreeWX-Wi 1.01,2013-01-07 22:43:00,
2013-01-07 14:48:00,55.4,50.0,30.21,North,-999,0.0,0.0,82,0.00,,,-99.99,FreeWX-Wi 1.01,2013-01-07 22:48:00,
2013-01-07 14:53:00,55.2,49.8,30.21,North,-999,0.0,0.0,82,0.00,,,-99.99,FreeWX-Wi 1.01,2013-01-07 22:53:00,
2013-01-07 14:58:00,55.2,49.8,30.21,North,-999,0.0,0.0,82,0.00,,,-99.99,FreeWX-Wi 1.01,2013-01-07 22:58:00,
2013-01-07 15:03:00,55.4,50.0,30.21,North,-999,0.0,0.0,82,0.00,,,-99.99,FreeWX-Wi 1.01,2013-01-07 23:03:00,
2013-01-07 15:08:00,55.6,50.2,30.21,North,-999,0.0,0.0,82,0.00,,,-99.99,FreeWX-Wi 1.01,2013-01-07 23:08:00,
2013-01-07 15:13:00,55.6,50.2,30.21,North,-999,0.0,0.0,82,0.00,,,-99.99,FreeWX-Wi 1.01,2013-01-07 23:13:00,
2013-01-07 15:18:00,55.4,50.0,30.21,North,-999,0.0,0.0,82,0.00,,,-99.99,FreeWX-Wi 1.01,2013-01-07 23:18:00,
2013-01-07 15:23:00,55.0,49.6,30.21,North,-999,0.0,2.7,82,0.00,,,-99.99,FreeWX-Wi 1.01,2013-01-07 23:23:00,
2013-01-07 15:28:00,55.0,49.6,30.21,North,-999,0.0,0.0,82,0.00,,,-99.99,FreeWX-Wi 1.01,2013-01-07 23:28:00,
2013-01-07 15:33:00,54.9,49.5,30.21,North,-999,0.0,2.7,82,0.00,,,-99.99,FreeWX-Wi 1.01,2013-01-07 23:33:00,
2013-01-07 15:38:00,54.7,49.3,30.21,North,-999,0.0,0.0,82,0.00,,,-99.99,FreeWX-Wi 1.01,2013-01-07 23:38:00,
2013-01-07 15:43:00,54.5,49.1,30.21,North,-999,0.0,0.0,82,0.00,,,-99.99,FreeWX-Wi 1.01,2013-01-07 23:43:00,
2013-01-07 15:48:00,54.3,48.9,30.21,North,-999,0.0,0.0,82,0.00,,,-99.99,FreeWX-Wi 1.01,2013-01-07 23:48:00,
2013-01-07 15:53:00,54.1,48.7,30.21,North,-999,0.0,0.0,82,0.00,,,-99.99,FreeWX-Wi 1.01,2013-01-07 23:53:00,
2013-01-07 15:58:00,54.0,48.6,30.21,North,-999,0.0,0.0,82,0.00,,,-99.99,FreeWX-Wi 1.01,2013-01-07 23:58:00,
2013-01-07 16:03:00,53.6,48.2,30.21,North,-999,0.0,0.0,82,0.00,,,-99.99,FreeWX-Wi 1.01,2013-01-08 00:03:00,
2013-01-07 16:08:00,53.4,48.0,30.21,North,-999,0.0,0.0,82,0.00,,,-99.99,FreeWX-Wi 1.01,2013-01-08 00:08:00,
2013-01-07 16:13:00,53.2,47.8,30.21,North,-999,0.0,0.0,82,0.00,,,-99.99,FreeWX-Wi 1.01,2013-01-08 00:13:00,
2013-01-07 16:18:00,53.2,47.8,30.21,North,-999,0.0,2.7,82,0.00,,,-99.99,FreeWX-Wi 1.01,2013-01-08 00:18:00,
2013-01-07 16:23:00,53.1,47.7,30.21,North,-999,0.0,0.0,82,0.00,,,-99.99,FreeWX-Wi 1.01,2013-01-08 00:23:00,
2013-01-07 16:28:00,52.9,47.5,30.21,North,-999,0.0,0.0,82,0.00,,,-99.99,FreeWX-Wi 1.01,2013-01-08 00:28:00,
2013-01-07 16:33:00,52.5,46.9,30.21,North,-999,0.0,3.1,81,0.00,,,-99.99,FreeWX-Wi 1.01,2013-01-08 00:33:00,
2013-01-07 16:38:00,52.3,46.8,30.21,North,-999,0.0,3.6,81,0.00,,,-99.99,FreeWX-Wi 1.01,2013-01-08 00:38:00,
2013-01-07 16:43:00,52.3,46.8,30.21,North,-999,0.0,4.0,81,0.00,,,-99.99,FreeWX-Wi 1.01,2013-01-08 00:43:00,
2013-01-07 16:48:00,52.3,46.8,30.21,North,-999,0.0,4.5,81,0.00,,,-99.99,FreeWX-Wi 1.01,2013-01-08 00:48:00,
2013-01-07 16:53:00,52.3,46.8,30.21,North,-999,0.0,2.7,81,0.00,,,-99.99,FreeWX-Wi 1.01,2013-01-08 00:53:00,
2013-01-07 16:58:00,52.2,46.6,30.21,North,-999,0.0,0.0,81,0.00,,,-99.99,FreeWX-Wi 1.01,2013-01-08 00:58:00,
2013-01-07 17:03:00,52.2,46.6,30.21,North,-999,0.0,2.2,81,0.00,,,-99.99,FreeWX-Wi 1.01,2013-01-08 01:03:00,
2013-01-07 17:08:00,52.0,46.0,30.21,North,-999,0.0,0.0,80,0.00,,,-99.99,FreeWX-Wi 1.01,2013-01-08 01:08:00,
2013-01-07 17:13:00,52.0,46.0,30.21,North,-999,0.0,0.0,80,0.00,,,-99.99,FreeWX-Wi 1.01,2013-01-08 01:13:00,
2013-01-07 17:18:00,52.0,46.0,30.21,North,-999,0.0,0.0,80,0.00,,,-99.99,FreeWX-Wi 1.01,2013-01-08 01:18:00,
2013-01-07 17:23:00,51.8,45.9,30.21,North,-999,0.0,0.0,80,0.00,,,-99.99,FreeWX-Wi 1.01,2013-01-08 01:23:00,
2013-01-07 17:28:00,51.8,45.9,30.21,North,-999,0.0,0.0,80,0.00,,,-99.99,FreeWX-Wi 1.01,2013-01-08 01:28:00,
2013-01-07 18:01:00,51.6,45.7,30.21,North,-999,0.0,0.0,80,0.00,,,-99.99,FreeWX-Wi 1.01,2013-01-08 02:01:00,
2013-01-07 18:06:00,51.6,45.7,30.21,North,-999,0.0,0.0,80,0.00,,,-99.99,FreeWX-Wi 1.01,2013-01-08 02:06:00,
2013-01-07 18:11:00,51.4,45.5,30.21,North,-999,0.0,0.0,80,0.00,,,-99.99,FreeWX-Wi 1.01,2013-01-08 02:11:00,
2013-01-07 18:16:00,51.4,45.5,30.21,North,-999,0.0,0.0,80,0.00,,,-99.99,FreeWX-Wi 1.01,2013-01-08 02:16:00,
2013-01-07 18:21:00,51.4,45.5,30.21,North,-999,0.0,0.0,80,0.00,,,-99.99,FreeWX-Wi 1.01,2013-01-08 02:21:00,
2013-01-07 18:26:00,51.4,45.5,30.21,North,-999,0.0,0.0,80,0.00,,,-99.99,FreeWX-Wi 1.01,2013-01-08 02:26:00,
2013-01-07 18:31:00,51.4,45.5,30.24,North,-999,0.0,0.0,80,0.00,,,-99.99,FreeWX-Wi 1.01,2013-01-08 02:31:00,
2013-01-07 18:36:00,51.4,45.5,30.24,North,-999,0.0,0.0,80,0.00,,,-99.99,FreeWX-Wi 1.01,2013-01-08 02:36:00,
2013-01-07 18:41:00,51.4,45.5,30.24,North,-999,0.0,0.0,80,0.00,,,-99.99,FreeWX-Wi 1.01,2013-01-08 02:41:00,
2013-01-07 18:46:00,51.4,45.5,30.24,North,-999,0.0,0.0,80,0.00,,,-99.99,FreeWX-Wi 1.01,2013-01-08 02:46:00,
2013-01-07 18:51:00,51.4,45.5,30.24,North,-999,0.0,0.0,80,0.00,,,-99.99,FreeWX-Wi 1.01,2013-01-08 02:51:00,
2013-01-07 18:56:00,51.3,45.3,30.24,North,-999,0.0,0.0,80,0.00,,,-99.99,FreeWX-Wi 1.01,2013-01-08 02:56:00,
2013-01-07 19:01:00,51.3,45.3,30.24,North,-999,0.0,0.0,80,0.00,,,-99.99,FreeWX-Wi 1.01,2013-01-08 03:01:00,
2013-01-07 19:06:00,51.3,45.3,30.24,North,-999,0.0,0.0,80,0.00,,,-99.99,FreeWX-Wi 1.01,2013-01-08 03:06:00,
2013-01-07 19:11:00,51.3,45.3,30.24,North,-999,0.0,0.0,80,0.00,,,-99.99,FreeWX-Wi 1.01,2013-01-08 03:11:00,
2013-01-07 19:16:00,51.3,45.3,30.24,North,-999,0.0,0.0,80,0.00,,,-99.99,FreeWX-Wi 1.01,2013-01-08 03:16:00,
2013-01-07 19:21:00,51.3,45.3,30.24,North,-999,0.0,0.0,80,0.00,,,-99.99,FreeWX-Wi 1.01,2013-01-08 03:21:00,
2013-01-07 19:26:00,51.3,45.3,30.24,North,-999,0.0,0.0,80,0.00,,,-99.99,FreeWX-Wi 1.01,2013-01-08 03:26:00,
2013-01-07 19:31:00,51.1,45.1,30.24,North,-999,0.0,0.0,80,0.00,,,-99.99,FreeWX-Wi 1.01,2013-01-08 03:31:00,
2013-01-07 19:36:00,51.1,45.1,30.24,North,-999,0.0,0.0,80,0.00,,,-99.99,FreeWX-Wi 1.01,2013-01-08 03:36:00,
2013-01-07 19:41:00,51.3,45.3,30.24,North,-999,0.0,0.0,80,0.00,,,-99.99,FreeWX-Wi 1.01,2013-01-08 03:41:00,
2013-01-07 19:46:00,51.3,45.3,30.24,North,-999,0.0,0.0,80,0.00,,,-99.99,FreeWX-Wi 1.01,2013-01-08 03:46:00,
2013-01-07 19:51:00,51.1,45.1,30.24,North,-999,0.0,0.0,80,0.00,,,-99.99,FreeWX-Wi 1.01,2013-01-08 03:51:00,
2013-01-07 19:56:00,51.1,45.1,30.24,North,-999,0.0,0.0,80,0.00,,,-99.99,FreeWX-Wi 1.01,2013-01-08 03:56:00,
2013-01-07 20:01:00,51.1,45.1,30.24,North,-999,0.0,0.0,80,0.00,,,-99.99,FreeWX-Wi 1.01,2013-01-08 04:01:00,
2013-01-07 20:06:00,51.1,45.1,30.24,North,-999,0.0,0.0,80,0.00,,,-99.99,FreeWX-Wi 1.01,2013-01-08 04:06:00,
2013-01-07 20:11:00,51.1,45.1,30.24,North,-999,0.0,0.0,80,0.00,,,-99.99,FreeWX-Wi 1.01,2013-01-08 04:11:00,
2013-01-07 20:16:00,51.1,45.1,30.24,North,-999,0.0,0.0,80,0.00,,,-99.99,FreeWX-Wi 1.01,2013-01-08 04:16:00,
2013-01-07 20:21:00,51.1,45.1,30.24,North,-999,0.0,0.0,80,0.00,,,-99.99,FreeWX-Wi 1.01,2013-01-08 04:21:00,
2013-01-07 20:27:00,51.1,45.1,30.24,North,-999,0.0,0.0,80,0.00,,,-99.99,FreeWX-Wi 1.01,2013-01-08 04:27:00,
2013-01-07 20:32:00,51.1,45.1,30.21,North,-999,0.0,0.0,80,0.00,,,-99.99,FreeWX-Wi 1.01,2013-01-08 04:32:00,
2013-01-07 20:37:00,50.9,45.0,30.21,North,-999,0.0,0.0,80,0.00,,,-99.99,FreeWX-Wi 1.01,2013-01-08 04:37:00,
2013-01-07 20:42:00,50.9,45.0,30.21,North,-999,0.0,0.0,80,0.00,,,-99.99,FreeWX-Wi 1.01,2013-01-08 04:42:00,
2013-01-07 20:47:00,50.7,44.8,30.24,North,-999,0.0,0.0,80,0.00,,,-99.99,FreeWX-Wi 1.01,2013-01-08 04:47:00,
2013-01-07 20:52:00,50.7,44.4,30.24,North,-999,0.0,0.0,79,0.00,,,-99.99,FreeWX-Wi 1.01,2013-01-08 04:52:00,
2013-01-07 20:57:00,50.7,44.4,30.24,North,-999,0.0,0.0,79,0.00,,,-99.99,FreeWX-Wi 1.01,2013-01-08 04:57:00,
2013-01-07 21:07:00,50.7,44.4,30.24,North,-999,0.0,0.0,79,0.00,,,-99.99,FreeWX-Wi 1.01,2013-01-08 05:07:00,
2013-01-07 21:12:00,50.7,44.4,30.24,North,-999,0.0,0.0,79,0.00,,,-99.99,FreeWX-Wi 1.01,2013-01-08 05:12:00,
2013-01-07 21:17:00,50.9,44.6,30.24,North,-999,0.0,0.0,79,0.00,,,-99.99,FreeWX-Wi 1.01,2013-01-08 05:17:00,
2013-01-07 21:22:00,50.9,44.6,30.24,North,-999,0.0,0.0,79,0.00,,,-99.99,FreeWX-Wi 1.01,2013-01-08 05:22:00,
2013-01-07 21:27:00,50.7,44.4,30.24,North,-999,0.0,0.0,79,0.00,,,-99.99,FreeWX-Wi 1.01,2013-01-08 05:27:00,
2013-01-07 21:32:00,50.7,44.4,30.24,North,-999,0.0,0.0,79,0.00,,,-99.99,FreeWX-Wi 1.01,2013-01-08 05:32:00,
2013-01-07 21:37:00,50.7,44.4,30.24,North,-999,0.0,0.0,79,0.00,,,-99.99,FreeWX-Wi 1.01,2013-01-08 05:37:00,
2013-01-07 21:42:00,50.7,44.4,30.24,North,-999,0.0,0.0,79,0.00,,,-99.99,FreeWX-Wi 1.01,2013-01-08 05:42:00,
2013-01-07 21:47:00,50.7,44.4,30.24,North,-999,0.0,0.0,79,0.00,,,-99.99,FreeWX-Wi 1.01,2013-01-08 05:47:00,
2013-01-07 21:52:00,50.7,44.4,30.24,North,-999,0.0,0.0,79,0.00,,,-99.99,FreeWX-Wi 1.01,2013-01-08 05:52:00,
2013-01-07 21:57:00,50.7,44.4,30.24,North,-999,0.0,0.0,79,0.00,,,-99.99,FreeWX-Wi 1.01,2013-01-08 05:57:00,
2013-01-07 22:02:00,50.7,44.4,30.24,North,-999,0.0,0.0,79,0.00,,,-99.99,FreeWX-Wi 1.01,2013-01-08 06:02:00,
2013-01-07 22:07:00,50.7,44.1,30.24,North,-999,0.0,0.0,78,0.00,,,-99.99,FreeWX-Wi 1.01,2013-01-08 06:07:00,
2013-01-07 22:12:00,50.7,44.1,30.24,North,-999,0.0,0.0,78,0.00,,,-99.99,FreeWX-Wi 1.01,2013-01-08 06:12:00,
2013-01-07 22:17:00,50.7,44.1,30.24,North,-999,0.0,0.0,78,0.00,,,-99.99,FreeWX-Wi 1.01,2013-01-08 06:17:00,
2013-01-07 22:22:00,50.7,44.1,30.24,North,-999,0.0,0.0,78,0.00,,,-99.99,FreeWX-Wi 1.01,2013-01-08 06:22:00,
2013-01-07 22:27:00,50.7,44.1,30.24,North,-999,0.0,0.0,78,0.00,,,-99.99,FreeWX-Wi 1.01,2013-01-08 06:27:00,
2013-01-07 22:32:00,50.7,44.1,30.24,North,-999,0.0,0.0,78,0.00,,,-99.99,FreeWX-Wi 1.01,2013-01-08 06:32:00,
2013-01-07 22:37:00,50.7,44.1,30.24,North,-999,0.0,0.0,78,0.00,,,-99.99,FreeWX-Wi 1.01,2013-01-08 06:37:00,
2013-01-07 22:42:00,50.7,44.1,30.24,North,-999,0.0,0.0,78,0.00,,,-99.99,FreeWX-Wi 1.01,2013-01-08 06:42:00,
2013-01-07 22:47:00,50.7,44.1,30.24,North,-999,0.0,0.0,78,0.00,,,-99.99,FreeWX-Wi 1.01,2013-01-08 06:47:00,
2013-01-07 22:52:00,50.7,44.1,30.24,North,-999,0.0,0.0,78,0.00,,,-99.99,FreeWX-Wi 1.01,2013-01-08 06:52:00,
2013-01-07 22:57:00,50.7,44.1,30.24,North,-999,0.0,0.0,78,0.00,,,-99.99,FreeWX-Wi 1.01,2013-01-08 06:57:00,
2013-01-07 23:02:00,50.7,43.7,30.24,North,-999,0.0,0.0,77,0.00,,,-99.99,FreeWX-Wi 1.01,2013-01-08 07:02:00,
2013-01-07 23:07:00,50.7,43.7,30.24,North,-999,0.0,0.0,77,0.00,,,-99.99,FreeWX-Wi 1.01,2013-01-08 07:07:00,
2013-01-07 23:12:00,50.7,43.5,30.24,North,-999,0.0,0.0,76,0.00,,,-99.99,FreeWX-Wi 1.01,2013-01-08 07:12:00,
2013-01-07 23:17:00,50.5,43.3,30.24,North,-999,0.0,0.0,76,0.00,,,-99.99,FreeWX-Wi 1.01,2013-01-08 07:17:00,
2013-01-07 23:22:00,50.5,43.3,30.24,North,-999,0.0,0.0,76,0.00,,,-99.99,FreeWX-Wi 1.01,2013-01-08 07:22:00,
2013-01-07 23:27:00,50.5,43.3,30.24,North,-999,0.0,0.0,76,0.00,,,-99.99,FreeWX-Wi 1.01,2013-01-08 07:27:00,
2013-01-07 23:32:00,50.5,43.3,30.24,North,-999,0.0,0.0,76,0.00,,,-99.99,FreeWX-Wi 1.01,2013-01-08 07:32:00,
2013-01-07 23:37:00,50.4,43.2,30.24,North,-999,0.0,0.0,76,0.00,,,-99.99,FreeWX-Wi 1.01,2013-01-08 07:37:00,
2013-01-07 23:42:00,50.4,43.2,30.24,North,-999,0.0,0.0,76,0.00,,,-99.99,FreeWX-Wi 1.01,2013-01-08 07:42:00,
2013-01-07 23:47:00,50.4,43.2,30.24,North,-999,0.0,0.0,76,0.00,,,-99.99,FreeWX-Wi 1.01,2013-01-08 07:47:00,
2013-01-07 23:52:00,50.4,43.2,30.24,North,-999,0.0,0.0,76,0.00,,,-99.99,FreeWX-Wi 1.01,2013-01-08 07:52:00,
2013-01-07 23:57:00,50.4,43.2,30.24,North,-999,0.0,0.0,76,0.00,,,-99.99,FreeWX-Wi 1.01,2013-01-08 07:57:00,